GFSMW_850_temp_021.txt.gz
Temp
21 20 19 18 19 20 20 21 21 21 21 20 20 20 20 20 19 19 19 19 19 19 19 19 18 18 18 17 17 17 17 17 17 17 17 17 17 17 17 17 16 16 16
21 20 19 19 18 21 21 21 21 21 21 21 21 20 20 20 20 19 19 19 19 19 19 19 19 18 18 18 17 17 17 17 17 17 17 17 17 17 17 17 17 17 17
21 20 20 19 19 20 21 21 21 21 21 21 20 20 20 20 20 19 19 19 19 19 19 19 19 18 18 18 18 17 17 17 17 17 17 17 18 17 17 17 17 17 17
22 21 20 20 19 22 22 21 21 21 21 21 20 20 20 20 20 20 20 19 19 19 19 19 19 18 18 18 18 18 17 17 17 17 17 17 17 18 17 17 17 17 17
23 22 21 21 22 21 23 22 22 21 21 21 21 21 20 20 20 20 20 20 19 19 19 19 19 19 18 18 18 18 18 17 17 17 17 17 17 17 17 18 17 17 17
23 22 22 21 21 21 22 22 22 22 21 21 21 21 21 21 21 21 20 20 20 19 19 19 19 19 19 18 18 18 18 18 17 18 17 17 16 16 16 17 17 17 16
24 23 22 21 23 22 23 23 23 23 23 22 22 22 22 21 21 21 21 20 20 20 20 20 19 19 19 19 18 18 18 18 19 18 18 17 17 17 17 17 16 16 16
24 24 24 23 25 25 24 24 24 23 23 23 23 22 22 22 22 22 21 21 21 21 21 20 20 20 19 19 19 19 19 19 19 19 19 18 17 17 17 17 16 16 16
25 24 24 24 25 26 26 25 25 24 24 24 23 23 23 22 22 22 22 21 21 21 21 21 20 20 20 20 19 19 19 19 19 19 19 18 18 17 17 17 16 16 17
27 26 24 23 25 26 27 26 26 26 26 25 24 24 24 23 23 22 22 22 22 21 20 21 20 20 20 20 19 19 19 20 20 20 20 19 19 18 17 17 16 16 16
28 27 26 24 24 23 23 25 26 26 26 26 26 25 25 24 24 23 23 23 22 21 20 20 21 20 20 20 20 19 19 20 20 20 21 20 20 19 18 18 17 16 16
28 30 27 25 24 24 24 24 25 25 26 26 26 26 26 25 25 24 24 24 23 22 21 20 20 20 20 20 20 20 19 20 20 21 20 21 20 20 20 19 18 17 16
26 28 26 26 27 27 25 24 24 26 27 25 25 25 25 25 25 25 25 24 24 23 22 21 21 20 20 20 20 20 20 20 20 21 21 21 20 19 19 19 18 18 17
30 28 28 29 29 28 27 26 24 24 25 24 25 25 26 26 26 26 25 25 24 23 23 22 21 21 21 21 21 21 20 20 20 20 20 19 18 19 19 18 18 17 17
29 30 30 31 31 29 27 26 26 24 24 24 25 27 27 26 25 25 26 25 24 24 24 23 22 22 21 21 21 21 21 20 20 20 20 19 19 18 18 17 17 17 16
30 31 31 30 31 31 29 27 26 26 25 25 27 27 25 26 26 24 24 25 24 24 24 23 22 22 22 22 22 21 21 21 20 20 20 19 19 18 17 17 16 16 16
31 31 31 31 31 32 32 29 27 25 25 26 26 24 24 25 25 25 24 25 25 25 24 24 23 22 23 23 23 22 21 21 20 20 20 19 19 18 17 16 16 16 15
31 31 32 31 32 31 30 29 27 27 26 25 24 25 25 25 24 23 25 25 25 25 25 25 24 23 23 23 23 22 21 20 20 20 20 19 19 18 18 17 16 15 15
29 30 31 30 31 31 30 28 28 28 27 27 28 28 27 26 24 23 25 24 24 24 25 25 24 24 24 24 24 22 21 20 20 20 20 19 19 18 18 16 15 15 15
29 29 30 31 31 31 30 28 27 27 28 29 28 24 23 23 24 24 22 22 24 25 25 25 25 24 24 24 24 23 21 21 20 20 19 19 18 18 17 16 15 15 16
28 29 30 30 31 31 30 29 27 28 28 25 25 25 25 24 24 23 23 22 21 21 23 25 25 25 25 24 24 23 21 21 20 20 20 19 18 18 17 16 15 15 16
26 28 28 30 30 30 29 27 25 24 25 24 25 25 24 24 22 22 22 22 21 21 20 21 22 24 25 25 24 23 21 21 21 20 20 19 18 17 16 16 15 15 14
24 25 25 27 28 28 28 27 25 24 24 24 25 24 24 23 22 22 22 20 19 20 19 18 19 19 22 22 23 22 22 21 20 19 19 19 18 16 16 15 15 14 14
22 22 22 23 23 23 24 24 24 24 24 23 23 23 23 22 22 21 20 19 19 18 18 18 19 25 22 25 22 21 19 17 17 17 16 16 16 15 16 15 14 14 15
20 21 22 22 22 23 23 23 23 24 24 24 24 24 23 22 22 22 21 21 21 21 20 19 19 20 23 24 18 17 17 17 17 15 15 16 13 14 15 14 14 14 14
18 19 19 21 21 22 22 22 22 23 23 24 24 24 23 22 21 20 21 20 20 20 21 19 19 19 21 19 18 18 17 16 15 16 15 15 14 14 15 14 14 14 14

GFSMW_850_temp_024.txt.gz
Temp
24 23 22 21 21 20 19 18 18 18 18 18 18 18 19 18 18 19 18 19 19 19 19 18 18 18 18 17 18 17 17 18 17 18 19 18 18 18 18 18 18 17 18
25 23 22 22 21 20 19 18 18 18 20 19 19 19 19 19 19 19 18 20 19 20 20 19 18 18 18 18 17 18 18 18 18 19 20 20 19 18 18 18 18 17 18
25 24 23 22 22 21 20 19 18 18 21 18 18 18 18 19 19 19 19 19 20 20 20 19 19 18 18 18 18 17 17 19 17 18 19 20 21 20 18 17 18 17 18
26 25 24 23 22 22 20 19 18 19 19 20 19 19 19 19 20 19 20 19 20 20 19 20 19 19 18 18 18 17 18 18 18 17 17 18 18 20 20 18 18 17 17
27 26 25 24 23 22 21 20 19 19 19 20 20 19 20 20 20 20 20 19 19 20 18 19 19 19 19 18 18 18 18 17 18 19 18 17 18 18 19 20 19 17 18
27 27 26 25 24 23 22 21 19 21 21 21 21 20 19 20 20 20 20 20 19 19 18 18 19 19 18 18 18 18 18 18 18 18 18 19 19 19 19 20 19 19 19
27 27 26 25 24 23 22 21 20 20 21 21 21 22 21 20 20 19 19 20 20 20 20 19 20 19 19 19 19 18 18 19 19 19 18 18 18 18 19 19 20 19 19
28 28 27 26 24 24 23 22 21 22 22 22 22 22 22 20 19 19 20 20 21 21 20 19 20 20 19 20 19 18 18 18 20 20 19 18 18 18 18 18 19 19 19
29 28 28 27 25 24 23 22 23 25 24 24 23 23 23 22 20 20 20 20 20 21 19 19 20 19 20 20 19 19 19 19 20 20 21 20 18 18 18 18 18 19 20
30 29 28 28 27 25 24 22 23 26 26 25 24 24 23 23 23 22 22 21 20 21 20 19 20 19 20 20 20 19 19 20 20 19 20 21 19 18 18 18 18 18 19
32 30 29 28 28 27 25 24 22 22 25 26 26 25 24 24 24 23 23 23 22 21 22 21 21 20 20 21 20 20 19 21 21 20 20 21 19 18 18 17 18 18 18
33 32 31 30 28 27 26 25 24 23 24 27 27 26 25 25 24 24 24 24 23 23 22 22 21 21 20 20 21 21 19 20 21 20 20 19 18 20 19 17 17 17 17
30 30 31 30 29 28 26 26 25 24 23 22 23 24 25 26 25 25 25 24 24 24 23 22 22 21 21 20 21 21 21 20 21 20 20 18 19 20 18 18 17 17 16
30 30 30 30 29 28 27 26 26 25 24 24 22 22 26 27 27 26 26 25 25 24 24 23 23 22 21 20 21 21 21 20 20 21 20 18 18 20 20 19 19 17 17
30 30 29 29 28 28 27 26 25 25 25 24 23 22 26 26 26 26 26 26 25 25 25 24 23 23 22 20 21 22 22 21 21 21 21 19 18 20 19 19 18 17 17
30 30 30 28 28 28 28 26 25 25 24 24 23 22 21 23 25 24 24 25 25 25 25 25 24 23 22 21 22 23 22 22 22 21 21 20 19 20 19 19 18 18 17
29 30 30 30 29 29 29 29 26 24 24 24 22 22 22 23 23 22 22 24 24 22 24 24 24 24 24 23 23 24 23 23 22 22 20 18 18 20 19 19 18 17 17
30 30 30 31 31 29 30 28 26 27 25 23 24 22 23 22 20 21 22 23 22 22 24 24 24 24 24 24 23 23 23 22 20 20 19 18 18 20 20 19 18 17 17
29 29 30 30 29 29 29 28 26 25 23 25 27 27 24 22 21 22 24 23 22 21 22 22 24 25 25 25 24 23 22 21 19 19 18 18 18 20 20 19 18 16 16
29 29 29 28 28 31 29 27 26 25 27 26 25 25 26 24 25 26 24 22 22 23 20 19 23 25 25 25 25 24 22 21 21 19 19 20 19 20 20 19 18 16 16
27 27 26 27 29 29 30 27 26 28 26 23 23 23 24 25 25 24 23 22 21 20 20 20 20 21 25 25 25 25 24 23 20 20 19 17 20 20 19 19 17 17 16
26 25 24 25 24 27 27 28 29 26 23 22 22 22 23 22 20 21 21 20 19 19 19 19 20 20 21 24 25 24 24 24 21 20 20 18 21 21 19 18 17 16 15
23 24 24 23 22 24 23 24 25 23 22 22 22 21 21 20 21 20 20 19 19 20 20 20 20 20 21 21 23 25 25 23 22 21 19 18 21 20 18 17 16 15 15
20 21 21 21 20 20 21 21 23 23 23 22 22 21 20 20 20 20 20 20 21 20 20 21 21 21 21 20 20 22 19 20 20 18 18 17 18 17 16 16 15 16 14
18 19 19 19 18 18 19 20 22 22 20 20 21 21 21 21 20 20 21 21 21 22 21 21 22 20 20 20 18 20 19 18 18 18 17 17 16 16 15 15 15 15 14
16 17 16 16 17 17 19 21 22 22 23 22 22 22 22 23 22 22 21 21 21 21 21 21 21 21 20 19 20 20 18 17 17 17 17 16 16 15 15 15 15 14 14

GFSMW_850_temp_030.txt.gz
Temp
27 26 25 25 24 23 22 22 21 21 20 19 19 19 20 20 20 20 21 20 20 20 20 19 19 19 20 19 20 19 19 19 20 21 20 20 20 20 20 20 20 19 18
28 27 25 25 25 23 22 22 21 21 20 20 19 19 20 20 20 20 20 20 20 19 20 20 19 19 19 20 20 19 19 20 20 20 20 20 20 20 20 20 19 19 19
28 27 26 25 25 23 23 22 21 20 20 20 19 20 20 21 21 20 20 20 20 19 19 19 20 19 19 19 20 20 19 19 20 20 19 20 20 20 20 20 19 19 19
29 27 26 26 25 24 23 22 21 21 20 20 20 20 20 20 21 21 20 20 20 19 19 19 20 19 19 19 19 20 19 19 19 21 20 19 19 20 19 20 19 19 19
30 28 27 26 25 24 23 22 22 21 20 20 20 20 20 20 21 21 21 21 20 20 20 19 19 20 20 19 19 19 19 20 19 20 20 20 20 20 20 20 19 19 19
31 29 27 26 25 25 23 22 22 21 20 20 20 20 20 20 21 21 21 21 21 20 20 19 19 19 20 19 19 19 20 20 20 20 20 20 20 20 20 20 20 20 19
32 30 28 27 26 25 24 22 22 21 21 20 20 20 20 20 21 21 22 21 21 20 21 20 19 20 20 19 19 20 20 20 20 20 20 20 20 21 21 21 20 20 20
33 31 29 27 26 26 24 23 22 22 22 21 21 21 20 20 21 21 22 22 21 22 21 21 21 21 21 20 19 20 19 19 20 21 20 20 20 20 20 20 20 21 20
34 32 30 28 27 26 25 24 22 22 22 22 21 22 21 20 22 21 21 22 22 22 22 22 22 21 20 21 20 20 20 19 19 21 21 20 20 20 20 20 20 20 20
34 32 30 29 27 26 25 24 23 23 24 23 23 23 24 22 22 22 21 22 22 22 23 22 22 21 21 20 20 20 20 19 19 20 21 22 21 20 20 20 20 20 20
34 33 31 30 28 27 26 25 23 23 22 23 25 24 23 23 23 22 22 22 22 21 22 21 21 22 21 21 20 20 20 20 20 19 19 21 22 21 20 20 20 20 20
34 34 32 31 29 28 26 25 24 23 23 23 23 23 23 24 25 24 23 23 22 22 21 22 21 21 21 21 21 21 20 20 20 20 20 20 21 21 21 20 20 20 19
35 34 33 32 30 29 28 26 25 24 23 21 21 21 22 23 24 24 25 24 23 22 23 22 22 21 21 22 22 21 21 21 20 20 20 20 21 22 21 21 20 20 19
35 34 33 32 31 30 29 28 26 25 24 23 22 21 21 22 22 23 24 24 24 24 23 23 22 22 22 22 22 22 22 22 22 20 19 20 20 21 22 21 21 20 20
34 34 34 33 32 31 30 29 28 27 26 25 24 24 23 22 22 21 22 22 23 24 25 24 24 23 22 23 23 22 22 22 22 22 20 19 20 21 22 22 22 22 20
32 32 32 32 32 31 31 30 29 28 27 27 26 25 24 23 22 21 21 22 23 23 23 24 24 24 24 24 24 24 23 22 22 22 21 20 20 21 21 22 21 21 21
31 31 32 31 31 31 31 30 30 29 28 28 27 26 25 24 24 23 22 22 22 22 23 22 23 24 24 25 25 25 24 23 22 22 22 21 21 20 20 20 21 21 20
31 31 31 31 31 31 31 30 29 29 29 28 28 27 26 25 24 24 23 22 22 22 22 22 23 22 24 25 25 25 24 23 22 22 22 22 21 20 20 20 20 20 20
30 30 31 31 32 32 31 31 31 29 28 28 27 27 27 26 25 24 23 23 22 21 22 22 21 22 24 23 23 22 22 22 22 22 22 21 21 21 20 19 20 21 20
26 27 28 29 31 31 32 31 30 29 29 29 29 27 27 26 25 24 23 23 22 21 21 21 22 22 22 21 21 20 20 21 22 21 21 21 21 21 21 19 19 19 20
25 26 26 27 28 29 30 30 30 30 29 29 28 28 27 26 25 24 23 22 21 21 21 21 21 21 22 21 20 20 20 20 20 20 20 20 20 20 20 20 19 20 19
25 26 26 27 27 27 28 29 28 29 29 29 28 27 26 25 24 23 22 21 21 21 21 21 21 21 21 21 21 20 20 20 20 20 20 20 20 19 19 19 19 19 18
25 24 25 26 27 26 26 26 26 26 27 27 27 26 25 24 23 22 22 21 21 21 21 21 21 21 21 21 21 21 21 20 20 19 19 20 21 20 20 19 19 18 18
22 22 23 25 24 23 23 23 24 24 25 25 25 24 24 23 22 22 22 21 21 21 21 21 21 21 21 21 22 22 22 21 21 21 20 19 19 20 21 20 20 19 18
19 20 22 22 21 20 21 21 22 22 22 23 23 23 22 22 21 21 22 21 22 21 22 22 22 22 22 23 23 23 22 22 22 22 22 20 20 19 20 20 20 20 18
17 18 20 20 19 19 18 18 20 21 22 22 22 22 22 22 22 22 22 22 22 22 22 22 22 22 22 22 23 23 22 22 21 20 20 20 20 21 20 19 20 19 18

GFSMW_850_temp_033.txt.gz
Temp
25 25 24 24 24 23 23 22 22 21 21 20 20 20 20 20 20 20 20 20 20 20 20 19 19 19 19 19 19 20 19 20 20 20 20 20 20 20 19 19 19 19 18
26 25 25 25 24 23 23 22 22 22 21 21 20 20 20 19 20 20 20 20 20 20 20 20 19 19 19 19 19 19 19 20 20 20 20 20 20 20 19 19 19 18 18
26 25 25 25 24 24 23 23 22 22 21 21 20 20 19 20 19 20 20 20 20 20 20 20 19 19 19 19 20 19 19 20 20 19 19 19 20 19 19 19 19 19 18
26 25 25 25 24 24 23 23 22 22 21 21 20 20 20 19 20 20 20 20 20 20 20 20 19 19 19 19 19 20 19 20 20 20 19 20 20 20 19 19 19 19 19
26 26 25 25 25 24 23 23 22 22 21 21 20 20 20 20 20 20 20 20 20 20 20 20 19 19 19 20 19 19 19 19 19 19 20 20 20 20 19 19 19 19 19
27 26 25 25 25 24 23 23 22 22 21 21 21 20 20 20 20 20 20 20 20 20 20 20 19 19 20 20 20 19 20 19 19 19 20 20 20 20 20 20 19 19 19
27 26 25 25 25 24 23 23 23 22 21 21 21 20 20 20 20 20 21 21 21 20 20 20 19 20 20 20 20 19 20 20 20 19 20 20 20 20 20 20 20 20 19
28 27 26 25 25 25 24 23 23 22 22 22 22 21 20 20 20 20 21 21 21 21 21 21 20 20 20 20 20 20 20 20 20 20 20 20 20 20 20 20 20 20 20
28 27 26 26 25 25 25 23 23 23 22 22 22 22 21 20 21 21 21 21 21 21 21 21 21 21 21 20 21 21 20 20 20 21 21 21 20 20 20 20 20 20 20
29 28 27 26 26 26 25 24 23 23 23 23 22 22 23 22 22 22 21 21 21 21 21 21 22 21 21 21 20 20 21 20 20 21 21 21 21 20 20 20 20 20 20
30 28 27 26 27 26 25 25 24 23 23 23 23 23 23 23 21 22 22 21 21 21 21 22 21 22 22 21 21 21 20 20 20 20 21 21 21 20 20 20 20 21 20
30 28 28 27 26 26 25 26 25 24 24 24 23 22 23 23 22 22 23 22 22 21 22 22 22 21 21 21 21 22 21 20 20 20 20 21 21 21 21 21 20 20 20
31 29 28 27 26 26 26 26 26 25 25 24 23 23 22 22 23 23 23 23 23 23 22 21 22 22 21 21 21 21 22 22 21 21 20 20 21 21 22 21 21 20 20
31 30 29 28 27 27 26 26 26 25 25 24 24 24 23 23 23 24 24 24 24 23 23 22 21 21 21 21 21 21 22 22 22 21 21 20 20 21 22 22 21 20 20
33 31 30 29 28 28 27 27 26 26 25 25 24 25 25 24 24 24 24 25 24 23 23 23 23 22 21 21 22 22 22 22 22 22 22 21 22 22 22 22 22 21 20
32 31 30 30 29 29 29 28 27 27 26 26 27 25 25 24 24 24 24 24 25 25 24 24 23 23 22 22 22 22 22 22 22 23 23 22 22 22 22 21 21 21 21
31 31 31 31 29 28 29 28 28 27 27 26 26 26 26 25 25 25 24 24 24 24 24 24 24 23 24 23 22 22 22 22 23 23 23 23 22 22 21 21 20 20 21
30 30 31 31 30 30 30 30 29 28 27 27 26 26 25 25 25 25 25 24 24 24 24 25 24 23 24 24 23 22 21 21 21 22 23 23 23 23 22 22 21 19 20
28 29 29 29 30 31 30 30 29 29 28 28 27 27 27 26 26 25 25 25 24 23 23 23 23 23 23 22 22 21 21 20 20 20 20 21 22 22 22 21 20 20 20
26 28 29 28 28 29 30 31 30 29 29 28 28 28 27 27 27 26 26 25 25 24 24 23 23 23 22 21 21 20 20 20 20 20 20 20 20 19 20 20 20 20 20
25 26 27 27 27 28 28 29 30 30 30 29 29 28 28 28 27 27 26 25 24 24 23 22 22 21 22 21 20 20 20 20 20 20 20 20 19 19 19 19 19 20 20
24 24 25 26 27 27 28 28 29 28 28 29 29 29 29 28 27 27 26 25 24 23 22 22 21 21 21 21 20 20 20 20 20 20 20 20 19 19 19 19 19 19 19
22 23 24 24 24 26 26 27 27 27 27 28 28 28 27 27 26 26 25 24 23 22 22 21 21 21 21 21 21 21 21 21 21 21 21 21 20 20 20 19 20 19 19
20 21 22 21 22 23 24 25 26 27 26 26 26 27 26 26 25 24 23 23 22 22 21 21 21 21 22 21 21 21 21 20 20 20 21 21 21 21 20 20 19 20 19
20 20 19 19 20 21 22 22 23 23 23 24 24 24 25 25 24 23 22 22 22 22 22 22 22 22 21 21 21 21 21 21 21 21 21 21 21 21 21 20 20 20 20
18 20 19 18 18 19 20 20 21 21 21 22 22 23 23 23 22 22 22 21 21 21 21 22 21 21 21 21 21 21 21 21 21 21 21 21 21 20 19 19 19 20 21

GFSMW_850_temp_036.txt.gz
Temp
21 22 21 21 21 21 21 21 20 20 20 20 20 21 20 20 20 20 20 20 20 20 20 20 19 19 19 19 19 19 19 20 19 19 19 19 19 19 19 18 18 18 18
21 22 22 22 22 21 21 21 21 21 21 21 20 20 21 21 20 20 19 20 20 20 20 20 19 19 19 19 19 19 19 19 19 20 19 19 19 19 19 19 18 18 18
23 22 22 22 22 22 22 22 22 22 21 21 21 21 20 20 20 20 20 20 20 20 20 20 19 19 19 19 19 19 19 19 19 19 20 19 19 19 18 18 18 18 18
24 23 22 22 22 23 22 22 22 22 21 21 21 21 20 20 20 20 20 20 20 20 20 20 20 19 19 19 19 19 19 20 19 19 19 20 19 19 19 19 19 18 18
24 24 23 23 23 23 23 23 23 22 22 22 21 21 20 21 20 20 20 20 20 19 20 19 20 19 19 19 19 19 19 19 19 20 19 19 19 19 20 19 18 18 18
24 25 25 24 24 24 24 23 23 23 22 22 22 21 21 20 20 20 19 20 20 20 20 19 20 19 19 19 19 19 19 19 19 19 20 20 20 20 20 20 19 19 19
25 25 24 24 24 24 24 23 23 23 22 22 22 21 21 21 20 20 19 20 20 20 20 20 20 20 19 19 19 19 19 19 19 19 19 19 20 20 20 20 20 20 19
24 25 24 25 24 24 24 24 23 23 23 22 22 21 21 21 20 20 20 20 20 20 20 20 20 20 20 19 20 19 19 20 19 19 19 20 20 20 20 20 20 20 20
24 25 25 24 24 24 25 24 24 23 23 23 22 21 21 21 21 21 20 20 20 20 20 20 20 20 20 20 20 20 19 19 19 20 20 20 20 20 20 20 20 20 20
25 25 25 24 24 25 25 25 24 24 23 23 22 22 21 21 21 21 21 21 21 20 20 21 20 20 20 20 20 20 20 19 20 20 21 21 21 20 20 20 20 20 20
26 25 25 25 25 24 24 25 24 24 23 23 23 23 22 21 21 21 22 21 21 21 20 20 21 21 21 21 20 20 20 20 20 20 20 21 22 21 21 21 20 20 20
26 25 26 25 24 24 24 24 25 24 24 24 24 23 23 22 21 21 22 22 22 21 20 20 21 21 21 21 21 21 21 20 20 21 20 21 21 22 21 21 21 21 20
26 26 26 25 25 24 24 24 25 25 25 24 24 23 23 22 22 22 23 22 22 21 20 20 21 21 21 21 21 21 21 21 21 21 21 22 21 21 22 22 21 21 21
28 27 26 26 26 24 24 25 24 25 25 24 24 24 23 23 23 23 23 23 23 22 22 21 21 21 21 21 21 21 21 21 21 22 21 21 22 22 21 21 21 21 20
28 27 26 26 26 24 25 24 25 26 26 25 25 25 24 24 24 24 24 23 23 24 23 22 21 21 21 21 21 21 21 21 21 22 22 22 22 22 22 22 21 20 20
28 28 27 26 27 26 26 25 25 27 26 27 26 26 25 25 25 25 25 25 24 24 24 23 23 23 22 22 21 21 21 21 21 21 22 22 22 22 22 21 22 22 20
28 27 27 28 30 27 27 26 27 27 27 27 27 27 26 26 26 26 26 25 26 25 25 24 24 24 23 23 22 22 22 21 21 21 21 22 22 22 22 22 21 21 21
28 28 28 27 27 26 26 26 25 27 28 27 28 27 26 26 26 25 25 25 25 25 25 25 25 25 24 24 23 22 22 21 21 21 21 21 22 22 22 22 21 21 21
28 28 29 28 28 27 27 27 27 27 27 27 28 28 27 27 26 26 26 25 25 25 25 25 25 24 24 23 23 22 21 20 20 20 21 21 22 21 20 20 20 20 21
26 27 28 28 29 29 28 28 28 28 28 28 28 27 27 27 27 27 26 26 26 26 25 25 25 24 24 23 22 21 20 21 20 20 20 20 19 19 19 19 19 19 20
24 26 27 28 27 27 28 28 28 28 29 29 29 28 28 27 27 27 26 26 25 25 25 25 24 24 23 23 22 21 20 20 20 20 20 20 20 20 19 19 19 19 19
23 24 26 26 27 27 27 27 27 26 26 28 29 28 28 27 27 26 26 26 25 25 25 24 23 23 22 22 22 21 20 20 20 20 20 20 20 20 20 20 20 20 20
19 20 21 23 24 25 25 26 26 26 26 27 27 27 27 27 27 27 26 25 25 24 23 23 23 22 22 22 21 21 21 21 20 20 20 21 20 20 20 20 20 20 19
19 19 20 21 21 21 22 23 23 24 26 27 27 27 27 27 27 27 26 26 25 24 23 22 22 22 22 22 21 21 20 20 20 20 20 21 21 20 21 21 21 21 21
19 19 19 20 20 21 21 21 21 21 22 23 25 26 27 27 26 25 25 24 24 23 22 22 22 22 22 21 21 21 21 21 21 21 21 21 21 20 21 21 21 21 21
18 18 19 19 19 20 21 21 21 21 21 21 22 22 23 24 24 24 23 23 22 21 21 22 21 21 21 21 21 21 21 20 20 20 20 20 20 20 19 18 18 19 18

GFSMW_850_temp_042.txt.gz
Temp
17 17 17 19 19 19 20 20 20 21 20 20 20 19 19 19 19 20 20 19 19 19 19 19 19 19 18 18 18 19 19 19 19 19 18 19 18 18 18 18 17 17 17
18 18 18 18 19 19 20 20 20 21 21 20 20 20 20 19 19 19 20 20 19 19 19 19 19 19 19 18 18 18 19 19 19 19 19 18 18 18 18 18 18 17 17
18 18 18 18 18 19 20 20 20 21 20 20 20 20 19 19 19 19 20 20 19 19 19 19 19 19 18 18 18 18 19 19 19 19 19 19 19 19 19 18 18 18 18
19 19 19 18 19 19 20 20 20 20 20 20 20 20 20 20 19 19 19 19 19 19 19 19 19 19 19 18 18 18 19 18 19 19 19 19 19 19 19 19 18 18 18
19 19 19 20 20 19 20 20 20 20 21 20 20 20 20 20 20 20 19 19 19 19 19 19 19 19 19 18 18 18 19 19 19 19 19 19 19 19 19 19 19 19 19
20 20 21 20 19 20 20 20 20 21 21 21 20 20 20 20 20 20 20 20 20 19 19 19 19 19 18 18 18 18 19 19 19 19 19 19 19 19 19 19 19 19 19
20 20 21 20 20 20 20 21 21 21 21 21 21 21 20 20 20 20 21 20 20 20 20 19 19 19 19 19 18 19 19 19 19 19 19 19 19 19 19 19 19 19 20
20 21 21 21 21 21 21 22 22 22 22 21 21 21 21 21 21 20 21 21 21 21 20 19 19 19 19 19 18 19 19 19 19 19 19 19 19 19 19 19 19 19 19
22 21 21 21 21 21 22 22 23 23 23 22 22 22 22 21 21 21 20 21 21 21 20 20 19 19 19 19 19 19 19 19 19 19 19 19 19 19 19 19 19 19 19
22 22 22 22 22 22 22 22 23 23 23 23 22 22 22 22 22 21 21 20 20 20 20 20 20 19 19 19 19 19 19 19 19 19 19 19 19 19 19 19 19 19 19
23 23 23 22 23 22 22 23 22 23 23 23 23 23 22 22 22 22 21 21 20 20 21 20 20 20 19 19 19 19 19 19 20 20 20 20 20 20 19 19 19 19 19
25 24 24 23 23 23 23 23 23 23 23 24 24 23 23 23 22 22 22 21 21 21 21 20 20 20 20 20 20 19 19 20 20 20 20 20 20 20 21 20 21 20 20
25 24 24 23 23 23 23 23 23 23 24 24 24 23 23 23 23 22 22 22 21 21 21 20 21 20 20 20 20 20 20 20 20 20 20 20 20 21 21 21 21 21 21
25 25 24 24 24 24 24 24 23 24 23 23 23 23 23 24 23 23 23 22 22 21 21 21 21 21 21 21 20 20 20 20 20 20 20 20 20 21 21 21 21 21 21
27 26 25 24 23 23 23 24 24 24 23 23 23 23 23 23 24 23 23 23 22 22 22 21 22 21 21 21 21 21 21 21 21 21 21 21 21 22 21 21 22 22 21
26 28 26 25 23 23 25 26 25 24 24 23 23 23 23 23 24 24 23 23 23 22 22 22 22 22 22 22 22 22 22 22 21 22 22 22 22 22 22 22 21 21 20
23 25 26 25 25 25 25 27 26 24 24 24 24 24 24 24 24 24 24 23 23 23 22 22 23 23 23 23 23 23 22 22 22 22 22 22 22 22 22 22 21 21 20
24 25 25 27 26 27 25 25 25 25 25 25 25 24 24 24 24 24 24 24 23 23 23 23 23 23 24 24 24 23 22 22 22 22 22 22 22 22 22 21 21 21 21
24 25 25 26 25 25 25 25 26 25 25 26 26 26 26 25 25 24 24 24 24 24 24 24 24 24 24 24 24 23 22 22 23 22 22 22 21 21 21 20 20 21 20
23 26 25 25 24 24 24 25 26 27 26 28 27 26 26 26 26 26 25 25 24 24 23 23 24 24 24 24 23 22 21 21 21 22 21 21 21 20 20 20 19 19 20
22 25 25 25 25 25 25 25 25 28 27 26 26 26 26 26 26 25 25 24 24 24 24 24 24 24 24 24 23 23 22 22 22 21 21 21 21 20 20 20 20 20 19
19 22 25 25 25 25 25 25 25 25 26 26 26 26 26 26 25 25 25 25 24 24 23 23 24 24 24 24 24 23 22 21 21 21 21 20 20 20 20 19 20 19 19
17 18 20 23 23 24 24 25 25 25 26 25 25 25 25 25 25 25 25 24 24 24 24 24 24 24 24 24 23 23 22 21 20 20 20 21 20 20 20 20 20 20 20
16 17 18 19 19 21 22 22 22 23 24 24 24 24 25 24 24 24 24 24 24 24 24 25 24 24 24 23 22 22 21 21 21 21 21 20 20 20 20 20 20 20 20
16 16 17 17 18 19 20 21 22 22 24 24 24 24 23 23 23 23 23 23 23 24 24 24 23 23 23 22 21 21 21 21 21 20 20 20 20 20 20 20 20 20 20
16 16 16 17 17 18 19 21 22 23 23 23 24 24 24 25 25 24 24 24 24 24 22 22 21 22 21 20 20 21 21 20 20 20 20 20 19 20 20 20 20 19 19

GFSMW_850_temp_045.txt.gz
Temp
18 17 17 17 17 19 19 19 20 20 20 20 20 19 19 19 19 19 19 19 19 19 18 18 18 18 18 19 18 19 19 19 19 19 18 19 19 18 18 18 18 17 17
19 18 17 17 17 18 19 19 20 20 20 20 20 20 20 20 19 20 20 20 19 19 19 19 18 18 18 18 18 19 19 19 19 19 19 19 18 18 18 18 18 18 17
19 18 18 18 17 17 19 19 20 20 21 20 20 20 20 19 19 19 19 20 20 19 19 19 18 18 18 18 18 19 19 19 19 19 19 19 20 19 19 19 18 18 18
20 19 18 18 18 17 19 20 20 20 20 21 20 20 20 20 20 20 20 20 20 19 19 19 19 18 18 18 18 19 19 19 19 19 19 19 19 19 19 19 19 19 18
20 20 19 19 18 18 19 19 19 20 20 20 20 20 20 20 20 20 19 19 19 19 19 19 19 18 18 18 18 18 19 19 19 19 19 19 19 19 19 20 19 19 19
20 20 19 19 18 18 18 20 20 20 20 20 20 20 20 20 20 20 19 19 19 19 19 19 19 19 19 19 18 18 18 19 19 19 19 19 19 19 19 19 19 19 20
21 20 20 19 19 18 18 19 20 20 20 20 20 20 20 20 20 20 20 20 19 20 20 19 19 19 19 19 19 18 18 18 19 19 19 19 19 19 19 19 19 19 19
21 21 20 20 19 20 20 20 20 20 20 20 21 21 21 20 20 20 20 20 20 20 20 20 20 20 19 19 19 19 18 19 19 19 19 19 19 19 19 19 18 19 19
22 22 21 20 20 21 22 21 21 21 21 21 21 21 21 21 21 21 21 20 20 20 20 20 20 20 19 19 19 19 19 19 19 19 19 19 19 19 19 19 19 18 19
23 22 22 21 21 23 23 23 22 23 22 22 22 22 22 22 21 21 21 21 20 20 21 20 20 20 19 19 19 19 19 19 19 19 19 19 19 19 19 19 19 19 19
24 23 22 22 23 22 22 24 23 23 23 23 22 22 22 22 22 22 22 21 21 20 21 20 20 20 20 20 19 19 19 19 19 19 20 20 19 19 20 20 20 20 19
25 24 23 22 22 21 22 23 24 23 24 23 23 23 23 23 22 22 22 22 21 21 21 20 21 20 20 20 20 19 19 19 19 20 20 20 20 20 20 20 20 21 20
25 24 24 23 22 21 22 23 24 24 24 24 23 23 23 23 23 23 22 22 22 21 21 21 21 21 21 20 20 20 20 20 20 20 20 20 20 20 20 21 21 21 21
24 24 23 23 22 21 21 22 23 23 24 24 24 24 23 23 24 23 23 23 22 22 21 21 21 21 21 21 21 21 20 20 20 21 20 21 20 21 21 21 21 21 21
24 24 24 24 23 22 21 21 21 23 24 24 24 25 24 24 24 24 23 23 23 22 22 21 21 21 21 22 22 22 21 21 21 21 21 21 21 21 21 21 21 21 20
23 23 23 24 24 23 23 24 22 23 23 24 25 24 24 24 24 24 24 23 23 23 22 22 21 22 22 22 23 23 22 22 22 22 22 22 22 22 22 22 21 20 20
19 20 22 23 25 25 24 24 25 23 24 25 25 25 24 24 24 24 24 24 23 23 23 22 22 22 22 23 23 23 22 22 23 23 23 23 23 23 23 23 22 22 21
18 19 22 23 24 25 23 23 22 23 24 25 25 25 25 24 24 23 24 24 24 23 23 23 23 22 22 23 23 23 22 22 22 23 23 23 23 23 23 23 22 22 22
16 17 20 26 24 23 24 23 22 23 24 25 25 26 25 25 24 24 24 24 23 23 23 23 23 23 23 24 24 23 22 23 23 23 23 23 23 23 23 22 22 22 22
17 18 24 24 23 23 23 23 23 24 26 26 26 26 26 26 25 25 25 24 24 24 24 24 24 24 24 24 24 23 22 22 23 23 23 23 23 23 22 21 21 21 21
16 20 22 23 23 22 23 23 22 26 27 24 25 25 26 26 26 26 25 25 24 24 24 24 24 24 24 24 24 23 22 22 22 22 22 22 23 22 21 20 20 20 20
16 18 20 22 24 24 25 24 24 25 24 25 25 26 25 25 25 25 25 24 24 24 24 24 24 24 24 24 24 23 23 22 21 21 21 21 21 21 20 20 20 20 20
15 16 17 18 20 22 23 23 24 24 24 24 25 25 25 25 24 25 24 23 24 23 23 23 23 24 24 24 24 23 23 22 21 20 20 20 20 20 20 20 20 20 19
15 15 16 17 19 20 20 21 22 23 23 24 25 25 25 25 24 24 23 23 23 23 22 21 21 22 24 24 24 23 23 22 21 20 20 20 21 20 20 20 20 19 19
15 15 15 16 17 18 19 20 21 21 22 22 24 24 24 24 24 22 21 22 22 22 22 21 23 24 23 24 23 23 22 22 21 20 20 20 20 20 20 19 20 20 19
14 15 15 16 16 17 18 18 19 20 20 19 20 21 21 23 22 23 23 23 23 23 21 22 21 21 22 22 22 22 21 21 21 21 20 20 20 20 19 19 19 19 19

GFSMW_850_temp_048.txt.gz
Temp
21 21 20 20 20 19 18 18 17 17 17 18 18 18 19 18 18 18 19 19 19 19 19 18 18 18 18 18 18 19 19 19 19 19 20 19 19 18 19 19 19 18 18
22 21 20 20 20 19 18 18 17 17 18 18 18 19 19 19 19 19 20 20 19 19 18 18 18 18 18 17 18 18 19 19 19 21 21 21 20 20 19 19 19 18 18
22 21 21 20 20 20 18 18 18 19 20 18 18 18 18 18 18 19 19 19 20 20 19 19 18 19 18 18 17 18 19 20 19 19 20 21 21 21 19 19 19 18 19
23 22 21 21 21 20 19 18 18 19 20 20 18 18 19 20 20 20 20 19 20 20 20 18 19 19 18 18 18 18 18 19 20 19 19 20 20 21 21 20 19 19 19
23 23 22 21 21 20 19 18 17 19 19 20 19 18 20 20 20 20 19 19 20 20 19 19 19 19 18 18 18 18 19 19 20 20 20 19 20 19 21 22 21 20 20
24 23 23 22 21 21 20 19 18 19 20 20 21 19 19 20 20 19 20 20 20 19 19 20 19 19 19 18 18 19 19 18 19 19 19 20 21 21 21 21 21 21 21
25 24 23 22 21 21 20 20 18 20 20 20 21 20 20 19 19 19 19 20 20 20 19 19 20 19 19 18 18 19 18 19 18 19 19 20 20 20 20 20 21 21 21
26 25 24 23 22 21 20 20 19 18 20 20 21 21 21 19 19 19 20 20 20 20 20 18 18 20 19 19 18 18 18 18 18 19 19 19 20 19 20 20 20 21 22
27 25 24 23 22 22 21 20 19 20 19 19 21 21 21 20 19 19 19 19 19 20 19 19 18 18 19 19 18 18 18 18 18 18 18 18 20 19 19 19 20 20 22
27 26 25 24 23 22 21 20 19 19 21 19 19 20 21 21 20 19 20 19 19 20 20 19 18 18 18 20 19 19 18 18 18 19 18 18 19 19 19 19 20 20 20
28 27 26 25 24 23 22 21 20 19 19 20 19 20 20 20 21 20 21 21 21 21 21 20 20 18 18 19 20 19 19 18 18 18 18 18 18 19 20 20 19 20 20
29 28 27 26 25 24 23 22 21 21 20 21 21 21 21 21 19 21 21 21 21 21 21 21 21 19 19 18 18 19 19 18 18 18 18 18 19 20 20 19 19 20 20
30 29 28 27 26 25 24 23 22 22 22 20 21 20 20 20 21 22 22 22 22 22 21 21 21 21 19 19 19 19 19 19 19 19 19 19 18 18 20 19 20 20 19
29 29 28 28 26 25 24 23 24 23 23 22 21 21 23 22 22 23 23 23 22 22 22 21 21 21 21 19 19 19 20 19 19 19 19 19 19 19 19 19 19 19 19
28 28 28 27 26 25 24 23 24 23 24 22 22 21 24 24 23 23 23 23 23 23 22 22 21 21 20 20 19 19 19 19 20 19 19 20 20 20 21 20 20 19 19
27 27 27 27 26 25 24 23 22 23 23 22 22 21 24 24 24 24 24 23 23 23 23 22 22 21 20 21 21 21 20 19 20 20 20 21 21 22 22 21 21 21 20
25 25 25 26 26 25 24 23 22 22 22 22 21 21 24 25 25 25 24 24 24 23 23 23 22 22 22 22 22 23 22 20 20 20 20 20 21 21 22 22 23 23 22
21 22 23 24 25 26 25 24 23 22 21 21 21 22 23 24 25 24 24 24 24 24 23 23 23 23 23 23 23 23 23 22 22 21 20 21 23 22 21 20 20 20 20
18 19 20 22 23 24 26 24 23 22 21 21 22 23 24 24 24 24 24 24 24 23 24 24 23 23 23 24 24 23 22 22 23 23 23 23 23 24 24 23 23 22 21
17 17 19 21 22 22 25 25 23 22 20 21 25 24 24 25 24 24 24 24 24 24 23 23 23 24 24 24 24 24 23 21 21 23 24 24 24 24 24 24 23 22 21
16 18 20 21 22 22 25 25 23 22 23 21 20 20 22 25 24 24 25 25 24 23 24 22 23 24 24 24 24 24 23 22 21 21 21 21 21 24 24 22 22 21 19
16 21 23 23 24 24 24 24 22 22 21 20 20 21 24 24 21 23 23 23 24 24 24 24 23 22 24 25 25 25 24 23 22 22 22 21 20 21 22 21 21 21 20
17 19 22 23 23 23 23 22 21 21 20 21 20 20 22 24 21 22 21 20 21 21 21 21 21 21 21 23 25 25 24 23 22 22 20 20 20 20 21 21 20 20 20
15 16 18 19 20 21 21 21 20 20 20 20 20 20 19 20 20 20 20 20 21 20 22 22 22 22 22 22 22 24 24 23 22 22 22 21 21 20 20 20 21 20 19
13 15 16 17 17 17 18 19 19 19 20 20 20 20 20 19 20 20 21 21 21 22 22 23 23 23 23 23 22 22 21 23 23 22 21 20 20 20 20 21 20 20 20
10 12 14 15 15 15 16 16 18 19 19 19 20 21 21 21 21 20 20 20 21 21 22 22 22 23 23 23 21 21 21 21 22 21 20 20 20 20 20 20 20 20 19